TimeCST,TemperatureF,Dew PointF,Humidity,Sea Level PressureIn,VisibilityMPH,Wind Direction,Wind SpeedMPH,Gust SpeedMPH,PrecipitationIn,Events,Conditions,WindDirDegrees,DateUTC
12:15 AM,59.0,42.8,55,29.95,4.0,Calm,Calm,-,N/A,,Haze,0,2012-12-08 06:15:00
12:35 AM,59.0,42.8,55,29.95,4.0,Calm,Calm,-,N/A,,Haze,0,2012-12-08 06:35:00
12:55 AM,59.0,42.8,55,29.95,3.0,Calm,Calm,-,N/A,,Haze,0,2012-12-08 06:55:00
1:15 AM,59.0,42.8,55,29.95,3.0,SSW,4.6,-,N/A,,Haze,200,2012-12-08 07:15:00
1:35 AM,60.8,42.8,52,29.95,4.0,SSW,5.8,-,N/A,,Haze,200,2012-12-08 07:35:00
1:55 AM,60.8,42.8,52,29.95,4.0,SSW,8.1,-,N/A,,Haze,200,2012-12-08 07:55:00
2:15 AM,60.8,44.6,55,29.96,3.0,SSW,8.1,-,N/A,,Haze,200,2012-12-08 08:15:00
2:35 AM,60.8,42.8,52,29.96,1.0,SSW,5.8,-,N/A,,Haze,210,2012-12-08 08:35:00
2:55 AM,60.8,44.6,55,29.96,0.8,SSW,8.1,-,N/A,,Haze,210,2012-12-08 08:55:00
3:15 AM,60.8,44.6,55,29.96,0.5,SSW,3.5,-,N/A,,Haze,200,2012-12-08 09:15:00
3:35 AM,60.8,44.6,55,29.96,0.5,Calm,Calm,-,N/A,,Haze,0,2012-12-08 09:35:00
3:55 AM,60.8,42.8,52,29.96,0.2,South,3.5,-,N/A,,Haze,170,2012-12-08 09:55:00
4:15 AM,60.8,42.8,52,29.97,0.5,Calm,Calm,-,N/A,,Haze,0,2012-12-08 10:15:00
4:35 AM,60.8,44.6,55,29.97,0.8,Calm,Calm,-,N/A,,Haze,0,2012-12-08 10:35:00
4:55 AM,60.8,42.8,52,29.97,0.8,South,3.5,-,N/A,,Haze,170,2012-12-08 10:55:00
5:15 AM,60.8,44.6,55,29.96,1.0,South,3.5,-,N/A,,Haze,170,2012-12-08 11:15:00
5:55 AM,60.8,44.6,55,29.97,2.0,SSE,4.6,-,N/A,,Haze,160,2012-12-08 11:55:00
6:15 AM,60.8,44.6,55,29.98,2.5,SSW,5.8,-,N/A,,Haze,200,2012-12-08 12:15:00
6:35 AM,60.8,44.6,55,29.97,1.2,South,5.8,-,N/A,,Haze,180,2012-12-08 12:35:00
6:55 AM,60.8,44.6,55,29.98,1.0,South,5.8,-,N/A,,Haze,190,2012-12-08 12:55:00
7:15 AM,60.8,44.6,55,29.98,0.5,South,4.6,-,N/A,,Haze,180,2012-12-08 13:15:00
7:35 AM,60.8,44.6,55,29.98,0.2,South,6.9,-,N/A,,Haze,190,2012-12-08 13:35:00
7:55 AM,60.8,44.6,55,29.98,0.2,SSW,6.9,-,N/A,,Haze,200,2012-12-08 13:55:00
8:15 AM,60.8,44.6,55,29.98,0.2,South,5.8,-,N/A,,Haze,190,2012-12-08 14:15:00
8:35 AM,60.8,44.6,55,29.99,0.5,SSW,5.8,-,N/A,,Haze,200,2012-12-08 14:35:00
8:55 AM,60.8,44.6,55,29.99,1.2,South,4.6,-,N/A,,Haze,190,2012-12-08 14:55:00
9:15 AM,62.6,44.6,52,30.00,2.5,SSW,4.6,-,N/A,,Haze,210,2012-12-08 15:15:00
9:35 AM,62.6,46.4,55,30.00,3.0,SSW,5.8,-,N/A,,Haze,210,2012-12-08 15:35:00
9:55 AM,62.6,46.4,55,30.00,3.0,SSW,6.9,-,N/A,,Haze,210,2012-12-08 15:55:00
10:15 AM,62.6,46.4,55,30.00,5.0,South,6.9,-,N/A,,Haze,180,2012-12-08 16:15:00
10:35 AM,66.2,48.2,52,29.99,5.0,South,6.9,-,N/A,,Haze,190,2012-12-08 16:35:00
10:55 AM,66.2,48.2,52,29.99,6.0,South,4.6,-,N/A,,Haze,190,2012-12-08 16:55:00
11:15 AM,66.2,50.0,56,29.99,8.0,SSW,5.8,-,N/A,,Overcast,200,2012-12-08 17:15:00
11:35 AM,68.0,51.8,56,29.97,8.0,SSW,6.9,-,N/A,,Mostly Cloudy,200,2012-12-08 17:35:00
11:55 AM,69.8,53.6,56,29.96,8.0,South,6.9,-,N/A,,Mostly Cloudy,180,2012-12-08 17:55:00
12:15 PM,69.8,53.6,56,29.95,9.0,South,5.8,-,N/A,,Mostly Cloudy,180,2012-12-08 18:15:00
12:35 PM,71.6,55.4,57,29.94,8.0,South,8.1,-,N/A,,Mostly Cloudy,180,2012-12-08 18:35:00
12:55 PM,73.4,57.2,57,29.93,8.0,South,9.2,-,N/A,,Scattered Clouds,180,2012-12-08 18:55:00
1:15 PM,73.4,55.4,53,29.94,9.0,South,5.8,-,N/A,,Partly Cloudy,190,2012-12-08 19:15:00
1:35 PM,73.4,55.4,53,29.92,9.0,South,8.1,-,N/A,,Partly Cloudy,180,2012-12-08 19:35:00
1:55 PM,73.4,57.2,57,29.92,9.0,SSE,10.4,-,N/A,,Partly Cloudy,160,2012-12-08 19:55:00
2:15 PM,73.4,57.2,57,29.93,10.0,SSE,5.8,-,N/A,,Scattered Clouds,150,2012-12-08 20:15:00
2:35 PM,73.4,55.4,53,29.92,9.0,South,6.9,-,N/A,,Partly Cloudy,190,2012-12-08 20:35:00
2:55 PM,73.4,55.4,53,29.92,9.0,South,6.9,-,N/A,,Clear,180,2012-12-08 20:55:00
3:15 PM,73.4,55.4,53,29.92,9.0,South,6.9,-,N/A,,Clear,170,2012-12-08 21:15:00
3:35 PM,71.6,53.6,53,29.92,10.0,SSE,6.9,-,N/A,,Clear,150,2012-12-08 21:35:00
3:55 PM,69.8,53.6,56,29.92,8.0,SSE,4.6,-,N/A,,Clear,160,2012-12-08 21:55:00
4:15 PM,69.8,53.6,56,29.93,8.0,South,4.6,-,N/A,,Clear,180,2012-12-08 22:15:00
4:35 PM,68.0,51.8,56,29.92,9.0,South,5.8,-,N/A,,Clear,170,2012-12-08 22:35:00
4:55 PM,66.2,48.2,52,29.93,9.0,South,3.5,-,N/A,,Clear,180,2012-12-08 22:55:00
5:15 PM,66.2,48.2,52,29.93,10.0,SSE,4.6,-,N/A,,Scattered Clouds,160,2012-12-08 23:15:00
5:35 PM,66.2,48.2,52,29.94,10.0,SSE,4.6,-,N/A,,Mostly Cloudy,150,2012-12-08 23:35:00
5:55 PM,64.4,48.2,56,29.94,10.0,SSE,3.5,-,N/A,,Scattered Clouds,150,2012-12-08 23:55:00
6:15 PM,64.4,46.4,52,29.94,10.0,SSE,4.6,-,N/A,,Scattered Clouds,160,2012-12-09 00:15:00
6:55 PM,64.4,46.4,52,29.95,9.0,South,6.9,-,N/A,,Partly Cloudy,170,2012-12-09 00:55:00
7:15 PM,64.4,46.4,52,29.96,10.0,South,6.9,-,N/A,,Scattered Clouds,180,2012-12-09 01:15:00
7:35 PM,64.4,46.4,52,29.96,9.0,South,5.8,-,N/A,,Clear,180,2012-12-09 01:35:00
7:55 PM,62.6,46.4,55,29.96,9.0,South,5.8,-,N/A,,Partly Cloudy,180,2012-12-09 01:55:00
8:15 PM,62.6,46.4,55,29.96,8.0,South,5.8,-,N/A,,Partly Cloudy,170,2012-12-09 02:15:00
8:35 PM,62.6,46.4,55,29.97,8.0,South,5.8,-,N/A,,Clear,180,2012-12-09 02:35:00
8:55 PM,62.6,44.6,52,29.96,7.0,South,6.9,-,N/A,,Clear,170,2012-12-09 02:55:00
9:15 PM,62.6,44.6,52,29.97,7.0,South,4.6,-,N/A,,Clear,180,2012-12-09 03:15:00
9:35 PM,62.6,44.6,52,29.98,7.0,South,5.8,-,N/A,,Clear,180,2012-12-09 03:35:00
9:55 PM,62.6,44.6,52,29.98,7.0,South,5.8,-,N/A,,Mostly Cloudy,180,2012-12-09 03:55:00
10:15 PM,62.6,44.6,52,29.97,6.0,South,6.9,-,N/A,,Haze,190,2012-12-09 04:15:00
10:35 PM,62.6,44.6,52,29.97,6.0,South,4.6,-,N/A,,Haze,180,2012-12-09 04:35:00
10:55 PM,60.8,44.6,55,29.97,5.0,South,4.6,-,N/A,,Haze,180,2012-12-09 04:55:00
11:15 PM,60.8,44.6,55,29.96,5.0,South,6.9,-,N/A,,Haze,180,2012-12-09 05:15:00
11:35 PM,60.8,44.6,55,29.97,5.0,South,6.9,-,N/A,,Haze,190,2012-12-09 05:35:00
11:55 PM,60.8,44.6,55,29.97,5.0,South,5.8,-,N/A,,Haze,190,2012-12-09 05:55:00